DMSP 5D-2 F11 DEB, 29074

Orbit data source: Space-Track

DMSP 5D-2 F11 DEB, 29074 is space debris in SSO originally from a launch on Thu, 28 Nov 1991 UTC launched from the Air Force Western Test Range (AFWTR). Debris objects in space refer to the collection of defunct objects orbiting the Earth. Examples of debris include non-operational satellites, rocket bodies, and fragments generated from explosions, collisions, or faulty payload assembly.

Loading next visibility...
Identifier
29074, 1991-082BV
Orbit
SSO
Country
Flag of USUS
Related business
Manufacturer
Unknown
Mission
Spacecraft
Bus & Motor
Unknown
Mass
Unknown
Launch date (UTC)
1991-11-28 (34 years ago)
Launch vehicle
Unknown
Launch site
Air Force Western Test Range (AFWTR)
Object type
Payload
Rocket body
Debris
Shape & HBR
Unknown shape, 0.1 m
Radar Cross Section
Small (<0.1 m²)

Expand to show TLE details & history
Last TLE update: 2 days ago

TLE from 2 days ago
0 DMSP 5D-2 F11 DEB
1 29074U 91082BV  26119.51857612  .00007453  00000-0  16196-2 0  9990
2 29074  98.5713 209.8401 0004445 303.0482  57.0289 14.58331446123509
Epoch: 2026-04-29T12:26Z
TLE epoch observation values (Epoch: 2026-04-29T12:26:44.976Z)
Latitude
-0.00001°
Longitude
165.67432°
Altitude
699.827 km
Speed
7.507 km/s
True Right ascension
13h 59m 21s
True Declination
0° 00' 00"
Sunlit
Object was in full shadow at epoch
Visualization orbit readout
Latitude
Unknown
Longitude
Unknown
Altitude
Unknown
Speed
Unknown
Apparent Right ascension
Unknown
Apparent Declination
Unknown
Sunlit
N/A
Visualization observer readout
Local Sidereal Time
23:07:27
Azimuth
Unknown
Elevation
Unknown
Doppler factor
Unknown
Orbital elements
Apogee altitude
698.812 km
Perigee altitude
692.523 km
Semi-major axis
7,073.805 km
Eccentricity
0.00044
Inclination
98.5713°
RAAN
209.8401°
Arg. of periapsis
303.0482°
True anomaly
57.07165°
Mean anomaly
57.0289°
Eccentric anomaly
57.05027°
Mean motion
3.64807 °/min
Orbital period
98.68 mins
BSTAR
0.0016196
Loading maneuver chart data...
Computing Atmospheric mass density...

Documentation

Showing up to 5 results
|